DKFIS LFLJ-LSGK

Flight info

Callsign DKFIS
Flight time N/A
Altitude 17000
Route DCT SCS DCT SIO DCT
Aircraft DA42/L-SBDGRY/S

Departure

Time N/A
Airport Courchevel Altiport (LFLJ)

Arrival

Time 2026-05-07 18:37
Airport Saanen Airfield (LSGK)
Time Latitude Longitude Altitude Speed Heading
2026-05-07 18:25 46.18738 7.29176 17000 ft 194 kts 350°
2026-05-07 18:25 46.20083 7.29030 17001 ft 194 kts 350°
2026-05-07 18:26 46.21430 7.28887 17002 ft 194 kts 350°
2026-05-07 18:26 46.22765 7.28671 17004 ft 193 kts 348°
2026-05-07 18:26 46.24108 7.28489 16929 ft 196 kts 349°
2026-05-07 18:26 46.25462 7.28299 16802 ft 195 kts 349°
2026-05-07 18:27 46.26797 7.28102 16674 ft 196 kts 349°
2026-05-07 18:27 46.28155 7.27901 16544 ft 196 kts 349°
2026-05-07 18:27 46.29509 7.27701 16417 ft 196 kts 348°
2026-05-07 18:27 46.30426 7.27568 16338 ft 197 kts 349°
2026-05-07 18:28 46.32239 7.27295 16058 ft 197 kts 349°
2026-05-07 18:28 46.33596 7.27095 15812 ft 196 kts 349°
2026-05-07 18:28 46.34959 7.27218 15563 ft 203 kts 15°
2026-05-07 18:28 46.36195 7.28222 15320 ft 206 kts 30°
2026-05-07 18:29 46.37376 7.29396 15078 ft 206 kts 32°
2026-05-07 18:29 46.38541 7.30576 14837 ft 208 kts 32°
2026-05-07 18:29 46.39776 7.31620 14512 ft 206 kts 20°
2026-05-07 18:29 46.41087 7.32419 14037 ft 202 kts 18°
2026-05-07 18:30 46.42423 7.32939 13540 ft 197 kts 359°
2026-05-07 18:30 46.43780 7.32904 13012 ft 195 kts 353°
2026-05-07 18:30 46.45131 7.32778 12490 ft 194 kts 352°
2026-05-07 18:30 46.46353 7.32183 11973 ft 181 kts 320°
2026-05-07 18:31 46.47044 7.30750 11474 ft 173 kts 283°
2026-05-07 18:31 46.47009 7.29051 10986 ft 169 kts 255°
2026-05-07 18:31 46.46678 7.27444 10492 ft 168 kts 242°
2026-05-07 18:31 46.45853 7.26322 10016 ft 165 kts 203°
2026-05-07 18:32 46.44726 7.26065 9573 ft 162 kts 183°
2026-05-07 18:32 46.43718 7.26359 9462 ft 150 kts 145°
2026-05-07 18:32 46.43128 7.27631 9071 ft 152 kts 123°
2026-05-07 18:32 46.42703 7.28928 8858 ft 139 kts 96°
2026-05-07 18:33 46.43296 7.30029 8495 ft 141 kts 24°
2026-05-07 18:33 46.44238 7.30070 8048 ft 137 kts 354°
2026-05-07 18:33 46.45196 7.29926 7528 ft 139 kts 352°
2026-05-07 18:33 46.46087 7.29600 7193 ft 129 kts 338°
2026-05-07 18:34 46.46881 7.29174 6882 ft 117 kts 339°
2026-05-07 18:34 46.47612 7.28755 6525 ft 111 kts 338°
2026-05-07 18:34 46.47865 7.27832 6197 ft 115 kts 237°
2026-05-07 18:34 46.47137 7.27611 5898 ft 104 kts 175°
2026-05-07 18:35 46.46599 7.28303 5710 ft 118 kts 109°
2026-05-07 18:35 46.46701 7.29355 5551 ft 111 kts 21°
2026-05-07 18:35 46.47352 7.29025 5202 ft 101 kts 328°
2026-05-07 18:35 46.47970 7.28598 4872 ft 93 kts 333°
2026-05-07 18:36 46.48557 7.28167 4583 ft 96 kts 322°
2026-05-07 18:36 46.48949 7.27450 4222 ft 93 kts 284°
2026-05-07 18:36 46.48865 7.26521 3757 ft 92 kts 262°
2026-05-07 18:36 46.48756 7.25624 3448 ft 88 kts 259°
2026-05-07 18:37 46.48656 7.24857 3360 ft 57 kts 259°
2026-05-07 18:37 46.48647 7.24683 3359 ft 1 kts
2026-05-07 18:37 46.48676 7.24688 3358 ft 8 kts 41°
2026-05-07 18:37 46.48692 7.24779 3359 ft 10 kts 77°
2026-05-07 18:38 46.48705 7.24836 3359 ft 5 kts 13°
2026-05-07 18:38 46.48729 7.24848 3359 ft 4 kts 78°
2026-05-07 18:38 46.48730 7.24854 3359 ft 0 kts 78°